Location: Agadir-n-�alah
(31.1969°N, 8.6514°W)
Time: 23:18:17
(UTC+00:00)

Daily predictions for brighter satellites

Satellite Brightness Start Highest point End
(mag) Time Altitude Azimuth Time Altitude Azimuth Time Altitude Azimuth
IRAS Rocket 4.3 18:42:47 10° NNE 18:48:25 75° ESE 18:53:59 10° S
YAOGAN 1 3.7 18:46:34 10° SE 18:50:00 24° ENE 18:53:27 10° NNE
CZ-4C R/B 3.4 18:46:59 10° N 18:50:33 69° WNW 18:54:03 10° SSW
SJ 16-02 2.2 18:47:16 10° SSE 18:51:02 28° E 18:54:49 10° NE
Cosmos 1842 3.4 18:47:18 10° N 18:51:13 82° W 18:55:06 10° S
H-2A R/B 2.0 18:46:30 10° SSE 18:51:29 79° ENE 18:56:38 10° N
Intelsat 5-1 Rocket 3.6 18:49:19 10° SW 18:51:34 19° S 18:55:07 10° SE
Okean O Rocket 1.6 18:47:54 10° SSE 18:52:16 73° ENE 18:56:37 10° N
Orbus 7S 4.3 18:50:14 10° WSW 18:53:23 53° S 19:01:39 10° ESE
Cosmos 1943 Rocket 3.0 18:48:26 10° SW 18:53:52 56° WNW 18:59:22 10° N
NOSS 3-2 (A) 4.0 18:51:41 10° SSE 18:56:06 27° ESE 19:00:51 10° NE
Cosmos 1238 Rocket 4.0 18:52:11 10° S 18:58:32 60° E 19:04:13 10° NNE
Cosmos 2082 Rocket 2.9 18:53:47 10° NNW 18:59:23 61° WSW 19:04:56 10° S
Cosmos 1674 Rocket 3.5 18:56:14 10° N 19:00:32 66° E 19:04:48 10° SSE
DMSP B5D2-2 4.5 18:56:13 10° NNE 19:01:10 40° E 19:06:04 10° SSE
Sakura Rocket 4.4 18:59:19 10° W 19:05:38 74° S 19:13:35 13° E
Cosmos 2181 Rocket 4.3 19:03:29 10° N 19:09:42 74° W 19:16:00 10° S
CZ-2C R/B 3.3 19:06:29 10° N 19:12:00 65° WNW 19:17:33 10° SSW
SEDSat Delta rocket 4.1 19:05:31 10° W 19:12:20 81° S 19:17:49 15° ESE
COSMO-SKYMED 1 4.5 19:09:03 10° N 19:12:58 34° WNW 19:16:52 10° SW
SJ-11-01 4.2 19:08:32 10° SSE 19:13:12 85° ENE 19:17:52 10° N
Cosmos 2369 Rocket 2.2 19:08:09 10° SSW 19:13:50 87° WNW 19:19:30 10° NNE
COSMOS 2455 2.9 19:08:55 10° NNW 19:14:54 62° ENE 19:20:50 10° SE
Cosmos 2184 Rocket 4.2 19:11:18 10° S 19:17:37 78° W 19:23:56 10° N
Geosat 3.9 19:13:06 10° NNE 19:18:08 79° ESE 19:23:09 10° SSW
ASTRO E2 2.7 19:15:47 10° WSW 19:19:43 64° SSE 19:22:15 21° E
Cosmos 2327 Rocket 4.5 19:13:51 10° S 19:19:59 67° E 19:26:14 10° NNE
Cosmos 1777 Rocket 4.0 19:16:10 10° SSW 19:21:25 85° WNW 19:26:41 10° NNE
Aurora 2 Rocket 4.5 19:16:50 10° SW 19:21:35 22° SSE 19:24:18 15° SE
Cosmos 1674 3.0 19:22:12 10° N 19:25:44 40° E 19:29:11 10° SSE
Lacrosse 5 rocket 2.3 19:23:01 10° NNW 19:27:05 33° NE 19:28:53 23° E
Cosmos 1782 Rocket 3.5 19:22:46 10° S 19:27:10 68° E 19:31:34 10° NNE
Cosmos 1610 Rocket 4.4 19:21:12 10° S 19:27:26 81° E 19:33:38 10° N
Gbstr 26 Del rocket 4.3 19:21:04 10° SSW 19:27:39 59° SE 19:35:20 10° NE
H-2A R/B 2.8 19:23:15 10° S 19:27:40 76° WSW 19:32:10 10° NNW
H-2A R/B 2.2 19:25:26 10° N 19:29:32 69° WNW 19:33:35 10° SSW
Cosmos 1656 Rocket 3.6 19:24:16 10° SSW 19:29:52 86° ESE 19:35:25 10° NNE
Sich 1 Rocket 4.4 19:26:27 10° SSE 19:30:19 28° E 19:34:12 10° NNE
Cosmos 1805 3.2 19:28:27 10° S 19:32:15 58° E 19:36:04 10° NNE
CZ-3B R/B 2.3 19:27:06 10° NW 19:32:56 59° SW 19:34:57 16° SSE
Cosmos 1626 2.9 19:30:20 10° NNE 19:33:36 29° E 19:33:38 29° E
Cosmos 1315 Rocket 2.9 19:31:19 10° S 19:35:09 51° E 19:39:03 10° NNE
SeaSat 1 4.5 19:36:15 11° NE 19:36:15 11° NE 19:37:17 10° NE
ATLAS CENTAUR R/B 1.6 19:32:19 10° NNW 19:37:08 81° ENE 19:41:07 15° SSE
Cosmos 2154 Rocket 4.2 19:30:59 10° S 19:37:20 79° W 19:43:42 10° N
SL-8 Rocket 4.4 19:35:25 10° SSE 19:41:08 39° E 19:46:53 10° NNE
CZ-4B R/B 1.1 19:39:51 10° N 19:42:58 86° WNW 19:46:09 10° SSW
Cosmos 1707 4.3 19:40:39 10° NNW 19:44:16 38° W 19:47:52 10° SSW
CZ-4 R/B 1.6 19:40:33 10° S 19:44:20 65° W 19:48:08 10° NNW
MetOp-A 4.3 19:41:17 16° SE 19:45:23 50° ENE 19:50:33 10° N
Cosmos 1461 4.2 19:46:21 10° NW 19:49:57 35° WSW 19:53:31 10° S
Cosmos 1733 3.1 19:47:47 10° S 19:51:33 85° W 19:55:22 10° N
SL-08 RB Rocket 4.4 19:48:09 10° S 19:52:29 53° W 19:56:51 10° NNW
KORONAS-FOTON 3.9 19:50:05 10° N 19:53:51 72° W 19:57:37 10° S
Cosmos 773 Rocket 3.9 19:50:26 10° NNW 19:55:44 89° WSW 20:00:08 15° SSE
Nadezhda 3 Rocket 4.0 19:51:57 10° N 19:58:07 84° W 20:04:18 10° S
Cosmos 1300 Rocket 3.4 19:54:33 10° S 19:58:55 68° E 20:03:15 10° NNE
Meteor 1-15 Rocket 4.0 19:53:43 10° S 19:59:16 82° E 20:04:51 10° N
Okean-O 2.6 19:57:15 17° SSE 20:00:40 86° W 20:05:06 10° NNW
Cosmos 1975 Rocket 2.9 19:58:04 10° N 20:02:31 76° E 20:03:55 43° SSE
Cosmos 1766 3.1 19:58:37 10° S 20:02:32 89° E 20:06:27 10° N
Centaur AC-42 3.3 20:00:21 10° SW 20:02:52 20° S 20:02:52 20° S
Centaur AC-116 3.8 19:59:11 10° W 20:04:32 32° SSW 20:04:48 31° SSW
Meteor 1-22 Rocket 4.2 20:01:10 10° SSE 20:06:28 52° E 20:12:00 10° NNE
NOSS 3-2 (C) 3.1 20:02:00 10° SSW 20:07:12 61° ESE 20:09:25 36° NE
CSL-04 Rocket 3.5 20:04:55 30° SSE 20:07:41 76° ENE 20:13:05 10° N
Cosmos 990 Rocket 3.8 20:05:50 10° S 20:10:52 62° ESE 20:15:59 10° NNE
Centaur AC-112 3.5 20:01:18 10° WSW 20:12:15 44° S 20:12:46 43° SSE
USA 215 4.2 20:11:36 28° NE 20:12:45 29° NE 20:18:13 10° NNW
CENTAUR R/B 2.2 20:08:00 10° SSW 20:13:25 85° WNW 20:19:51 10° NNE
CZ-3 Stage 3 3.5 19:41:32 10° WSW 20:21:21 82° S 20:24:26 45° E
ATLAS 3B CENTAUR R/B 3.0 20:18:29 10° W 20:20:07 20° WSW 20:20:07 20° WSW
Meteor 2-5 Rocket 4.2 20:17:25 10° N 20:21:30 42° NE 20:21:30 42° NE
Cosmos 2366 rocket 3.8 20:19:30 10° S 20:25:38 78° E 20:31:46 10° N
Atlas Centaur 2 3.0 20:19:52 10° W 20:28:20 83° S 20:30:32 55° ESE
Cosmos 1346 Rocket 4.3 20:25:25 10° NNW 20:29:07 36° W 20:30:18 29° SW
SJ 16-02 4.1 20:26:29 10° WSW 20:29:34 18° WNW 20:32:39 10° NNW
USA 238 DEB 3.9 20:31:35 10° SW 20:37:54 63° WNW 20:44:32 10° NNE
USA 238 3.9 20:31:42 10° SW 20:38:01 64° WNW 20:44:38 10° NNE
Cosmos 2218 Rocket 3.9 20:32:12 10° S 20:38:19 80° W 20:44:32 10° N
Intelsat 5-3 Rocket 4.3 20:38:56 10° WSW 20:40:53 28° SW 20:40:53 28° SW
Cosmos 1538 Rocket 4.3 20:38:46 10° NNW 20:43:46 66° W 20:43:46 66° W
Lacrosse 5 rocket 4.0 21:02:34 10° WNW 21:04:31 19° W 21:04:31 19° W
CZ-3 Stage 3 4.2 21:22:56 10° W 21:31:12 40° W 21:31:12 40° W
